千帆星座-96(QIANFAN-96)

导读 | 豆包AI

QIANFAN-96(千帆-96)是中国于2025年10月17日发射的低轨卫星互联网卫星,属于我国千帆星座组网卫星之一。千帆星座旨在为全球提供高速实时、安全可靠的自主低轨卫星互联网服务,采用了多项技术创新,可填补地面通信盲区,助力全球宽带互联,支撑应急通信、海上通信等多场景应用,推动我国低轨卫星互联网规模化建设。

基本信息
目录编号:
66038
目录名称:
QIANFAN-96
国际标识:
2025-233F
轨道中心:
EARTH
卫星名称:
千帆星座-96
卫星全名:
千帆星座-96(QIANFAN-96)
卫星状态:
在轨 (已飞行148 天)
发射日期:
2025-10-17 UTC
国别 :
中国 (CN)
星等 :
--
轨道信息
数据来源 国际轨道数据 AOE轨道数据
星历时间 2026-03-14T06:12:49+0800
8小时前
查看轨道信息
2026-03-13T17:00:00+0800
21小时前
查看轨道信息
半长轴 7446.7km 7446.703km
偏心率 0.0002098 0.0002168
轨道倾角 88.995° 88.995°
近地点辐角 93.292° 92.116°
升交点赤经 52.828° 52.885°
平近点角 266.848° 111.885°
近地点 1067km 1066.951km
远地点 1070.126km 1070.181km
周期 106.587分钟 106.587分钟
每日圈数 13.510052 13.510044
详细信息
卫星平台:
96
覆盖范围:
全球
运营商:
上海垣信卫星科技有限公司
运营商所在国:
中国
使用方式:
暂无
卫星简介
千帆星座,也被称为“G60星链”计划,是中国版“星链”的重要组成部分,旨在打造一个由1.4万多颗低轨宽频多媒体卫星构成的庞大星座。千帆星座计划由上海垣信卫星科技有限公司负责实施,于2023年启动建设。该项目是我国第二个低轨卫星大星座,旨在通过构建庞大的卫星网络,为全球用户提供高质量的通信和宽带互联网服务。
2D轨道图
3D轨道图
轨道高度分析图
轨道倾角分析图
轨道综合分析图
查看轨道综合分析图